Index of /20260427/WXO-DD/model_caps/3km/12/043
Name Last modified Size Description
Parent Directory -
20260427T12Z_MSC_CAPS_AbsoluteVorticity_IsbL-0250_RLatLon0.03_PT043H.grib2 2026-04-27 18:22 1.0M
20260427T12Z_MSC_CAPS_AbsoluteVorticity_IsbL-0500_RLatLon0.03_PT043H.grib2 2026-04-27 18:22 1.1M
20260427T12Z_MSC_CAPS_AbsoluteVorticity_IsbL-0700_RLatLon0.03_PT043H.grib2 2026-04-27 18:22 1.4M
20260427T12Z_MSC_CAPS_AbsoluteVorticity_IsbL-0850_RLatLon0.03_PT043H.grib2 2026-04-27 18:22 1.2M
20260427T12Z_MSC_CAPS_AbsoluteVorticity_IsbL-1000_RLatLon0.03_PT043H.grib2 2026-04-27 18:22 1.3M
20260427T12Z_MSC_CAPS_AirDensity_AGL-120m_RLatLon0.03_PT043H.grib2 2026-04-27 18:22 1.4M
20260427T12Z_MSC_CAPS_AirDensity_AGL-40m_RLatLon0.03_PT043H.grib2 2026-04-27 18:22 1.4M
20260427T12Z_MSC_CAPS_AirDensity_AGL-80m_RLatLon0.03_PT043H.grib2 2026-04-27 18:22 1.4M
20260427T12Z_MSC_CAPS_AirTemp_AGL-120m_RLatLon0.03_PT043H.grib2 2026-04-27 18:22 1.8M
20260427T12Z_MSC_CAPS_AirTemp_AGL-2m_RLatLon0.03_PT043H.grib2 2026-04-27 18:22 2.1M
20260427T12Z_MSC_CAPS_AirTemp_AGL-40m_RLatLon0.03_PT043H.grib2 2026-04-27 18:22 1.8M
20260427T12Z_MSC_CAPS_AirTemp_AGL-80m_RLatLon0.03_PT043H.grib2 2026-04-27 18:22 1.8M
20260427T12Z_MSC_CAPS_AirTemp_IsbL-0050_RLatLon0.03_PT043H.grib2 2026-04-27 18:22 693K
20260427T12Z_MSC_CAPS_AirTemp_IsbL-0100_RLatLon0.03_PT043H.grib2 2026-04-27 18:22 964K
20260427T12Z_MSC_CAPS_AirTemp_IsbL-0150_RLatLon0.03_PT043H.grib2 2026-04-27 18:22 753K
20260427T12Z_MSC_CAPS_AirTemp_IsbL-0175_RLatLon0.03_PT043H.grib2 2026-04-27 18:22 772K
20260427T12Z_MSC_CAPS_AirTemp_IsbL-0200_RLatLon0.03_PT043H.grib2 2026-04-27 18:22 787K
20260427T12Z_MSC_CAPS_AirTemp_IsbL-0225_RLatLon0.03_PT043H.grib2 2026-04-27 18:22 788K
20260427T12Z_MSC_CAPS_AirTemp_IsbL-0250_RLatLon0.03_PT043H.grib2 2026-04-27 18:22 1.0M
20260427T12Z_MSC_CAPS_AirTemp_IsbL-0275_RLatLon0.03_PT043H.grib2 2026-04-27 18:22 1.0M
20260427T12Z_MSC_CAPS_AirTemp_IsbL-0300_RLatLon0.03_PT043H.grib2 2026-04-27 18:22 1.0M
20260427T12Z_MSC_CAPS_AirTemp_IsbL-0350_RLatLon0.03_PT043H.grib2 2026-04-27 18:22 1.0M
20260427T12Z_MSC_CAPS_AirTemp_IsbL-0400_RLatLon0.03_PT043H.grib2 2026-04-27 18:22 751K
20260427T12Z_MSC_CAPS_AirTemp_IsbL-0450_RLatLon0.03_PT043H.grib2 2026-04-27 18:22 767K
20260427T12Z_MSC_CAPS_AirTemp_IsbL-0500_RLatLon0.03_PT043H.grib2 2026-04-27 18:22 786K
20260427T12Z_MSC_CAPS_AirTemp_IsbL-0550_RLatLon0.03_PT043H.grib2 2026-04-27 18:22 797K
20260427T12Z_MSC_CAPS_AirTemp_IsbL-0600_RLatLon0.03_PT043H.grib2 2026-04-27 18:22 811K
20260427T12Z_MSC_CAPS_AirTemp_IsbL-0650_RLatLon0.03_PT043H.grib2 2026-04-27 18:22 1.0M
20260427T12Z_MSC_CAPS_AirTemp_IsbL-0700_RLatLon0.03_PT043H.grib2 2026-04-27 18:22 1.0M
20260427T12Z_MSC_CAPS_AirTemp_IsbL-0750_RLatLon0.03_PT043H.grib2 2026-04-27 18:22 1.0M
20260427T12Z_MSC_CAPS_AirTemp_IsbL-0800_RLatLon0.03_PT043H.grib2 2026-04-27 18:22 1.0M
20260427T12Z_MSC_CAPS_AirTemp_IsbL-0850_RLatLon0.03_PT043H.grib2 2026-04-27 18:22 1.1M
20260427T12Z_MSC_CAPS_AirTemp_IsbL-0875_RLatLon0.03_PT043H.grib2 2026-04-27 18:22 1.1M
20260427T12Z_MSC_CAPS_AirTemp_IsbL-0900_RLatLon0.03_PT043H.grib2 2026-04-27 18:22 1.1M
20260427T12Z_MSC_CAPS_AirTemp_IsbL-0925_RLatLon0.03_PT043H.grib2 2026-04-27 18:22 1.1M
20260427T12Z_MSC_CAPS_AirTemp_IsbL-0950_RLatLon0.03_PT043H.grib2 2026-04-27 18:22 1.2M
20260427T12Z_MSC_CAPS_AirTemp_IsbL-0970_RLatLon0.03_PT043H.grib2 2026-04-27 18:22 1.2M
20260427T12Z_MSC_CAPS_AirTemp_IsbL-0985_RLatLon0.03_PT043H.grib2 2026-04-27 18:22 1.1M
20260427T12Z_MSC_CAPS_AirTemp_IsbL-1000_RLatLon0.03_PT043H.grib2 2026-04-27 18:22 1.1M
20260427T12Z_MSC_CAPS_AirTemp_IsbL-1015_RLatLon0.03_PT043H.grib2 2026-04-27 18:22 1.1M
20260427T12Z_MSC_CAPS_Albedo_Sfc_RLatLon0.03_PT043H.grib2 2026-04-27 18:22 2.7M
20260427T12Z_MSC_CAPS_CAPE_Sfc_RLatLon0.03_PT043H.grib2 2026-04-27 18:22 66K
20260427T12Z_MSC_CAPS_CloudWater_EAtm_RLatLon0.03_PT043H.grib2 2026-04-27 18:22 1.4M
20260427T12Z_MSC_CAPS_ConvectivePrecip-Accum_Sfc_RLatLon0.03_PT043H.grib2 2026-04-27 18:22 4.5M
20260427T12Z_MSC_CAPS_DewPointDepression_AGL-120m_RLatLon0.03_PT043H.grib2 2026-04-27 18:22 2.1M
20260427T12Z_MSC_CAPS_DewPointDepression_AGL-2m_RLatLon0.03_PT043H.grib2 2026-04-27 18:22 2.1M
20260427T12Z_MSC_CAPS_DewPointDepression_AGL-40m_RLatLon0.03_PT043H.grib2 2026-04-27 18:22 2.1M
20260427T12Z_MSC_CAPS_DewPointDepression_AGL-80m_RLatLon0.03_PT043H.grib2 2026-04-27 18:22 2.1M
20260427T12Z_MSC_CAPS_DewPointDepression_IsbL-0050_RLatLon0.03_PT043H.grib2 2026-04-27 18:22 1.7K
20260427T12Z_MSC_CAPS_DewPointDepression_IsbL-0100_RLatLon0.03_PT043H.grib2 2026-04-27 18:22 128K
20260427T12Z_MSC_CAPS_DewPointDepression_IsbL-0150_RLatLon0.03_PT043H.grib2 2026-04-27 18:22 139K
20260427T12Z_MSC_CAPS_DewPointDepression_IsbL-0175_RLatLon0.03_PT043H.grib2 2026-04-27 18:22 201K
20260427T12Z_MSC_CAPS_DewPointDepression_IsbL-0200_RLatLon0.03_PT043H.grib2 2026-04-27 18:22 381K
20260427T12Z_MSC_CAPS_DewPointDepression_IsbL-0225_RLatLon0.03_PT043H.grib2 2026-04-27 18:22 687K
20260427T12Z_MSC_CAPS_DewPointDepression_IsbL-0250_RLatLon0.03_PT043H.grib2 2026-04-27 18:22 900K
20260427T12Z_MSC_CAPS_DewPointDepression_IsbL-0275_RLatLon0.03_PT043H.grib2 2026-04-27 18:22 1.0M
20260427T12Z_MSC_CAPS_DewPointDepression_IsbL-0300_RLatLon0.03_PT043H.grib2 2026-04-27 18:22 1.1M
20260427T12Z_MSC_CAPS_DewPointDepression_IsbL-0350_RLatLon0.03_PT043H.grib2 2026-04-27 18:22 1.1M
20260427T12Z_MSC_CAPS_DewPointDepression_IsbL-0400_RLatLon0.03_PT043H.grib2 2026-04-27 18:22 1.1M
20260427T12Z_MSC_CAPS_DewPointDepression_IsbL-0450_RLatLon0.03_PT043H.grib2 2026-04-27 18:22 1.2M
20260427T12Z_MSC_CAPS_DewPointDepression_IsbL-0500_RLatLon0.03_PT043H.grib2 2026-04-27 18:22 1.2M
20260427T12Z_MSC_CAPS_DewPointDepression_IsbL-0550_RLatLon0.03_PT043H.grib2 2026-04-27 18:22 1.2M
20260427T12Z_MSC_CAPS_DewPointDepression_IsbL-0600_RLatLon0.03_PT043H.grib2 2026-04-27 18:22 1.3M
20260427T12Z_MSC_CAPS_DewPointDepression_IsbL-0650_RLatLon0.03_PT043H.grib2 2026-04-27 18:22 1.3M
20260427T12Z_MSC_CAPS_DewPointDepression_IsbL-0700_RLatLon0.03_PT043H.grib2 2026-04-27 18:22 1.3M
20260427T12Z_MSC_CAPS_DewPointDepression_IsbL-0750_RLatLon0.03_PT043H.grib2 2026-04-27 18:22 1.3M
20260427T12Z_MSC_CAPS_DewPointDepression_IsbL-0800_RLatLon0.03_PT043H.grib2 2026-04-27 18:22 1.3M
20260427T12Z_MSC_CAPS_DewPointDepression_IsbL-0850_RLatLon0.03_PT043H.grib2 2026-04-27 18:22 1.3M
20260427T12Z_MSC_CAPS_DewPointDepression_IsbL-0875_RLatLon0.03_PT043H.grib2 2026-04-27 18:22 1.3M
20260427T12Z_MSC_CAPS_DewPointDepression_IsbL-0900_RLatLon0.03_PT043H.grib2 2026-04-27 18:22 1.4M
20260427T12Z_MSC_CAPS_DewPointDepression_IsbL-0925_RLatLon0.03_PT043H.grib2 2026-04-27 18:22 1.3M
20260427T12Z_MSC_CAPS_DewPointDepression_IsbL-0950_RLatLon0.03_PT043H.grib2 2026-04-27 18:22 1.3M
20260427T12Z_MSC_CAPS_DewPointDepression_IsbL-0970_RLatLon0.03_PT043H.grib2 2026-04-27 18:22 1.3M
20260427T12Z_MSC_CAPS_DewPointDepression_IsbL-0985_RLatLon0.03_PT043H.grib2 2026-04-27 18:22 1.3M
20260427T12Z_MSC_CAPS_DewPointDepression_IsbL-1000_RLatLon0.03_PT043H.grib2 2026-04-27 18:22 1.3M
20260427T12Z_MSC_CAPS_DewPointDepression_IsbL-1015_RLatLon0.03_PT043H.grib2 2026-04-27 18:22 1.3M
20260427T12Z_MSC_CAPS_DewPoint_AGL-120m_RLatLon0.03_PT043H.grib2 2026-04-27 18:22 3.6M
20260427T12Z_MSC_CAPS_DewPoint_AGL-2m_RLatLon0.03_PT043H.grib2 2026-04-27 18:22 1.8M
20260427T12Z_MSC_CAPS_DewPoint_AGL-40m_RLatLon0.03_PT043H.grib2 2026-04-27 18:22 3.7M
20260427T12Z_MSC_CAPS_DewPoint_AGL-80m_RLatLon0.03_PT043H.grib2 2026-04-27 18:22 3.7M
20260427T12Z_MSC_CAPS_DownwardLongwaveRadiationFlux-Accum_Sfc_RLatLon0.03_PT043H.grib2 2026-04-27 18:22 2.2M
20260427T12Z_MSC_CAPS_DownwardShortwaveRadiationFlux-Accum_NTAtm_RLatLon0.03_PT043H.grib2 2026-04-27 18:22 509K
20260427T12Z_MSC_CAPS_DownwardShortwaveRadiationFlux-Accum_Sfc_RLatLon0.03_PT043H.grib2 2026-04-27 18:22 2.9M
20260427T12Z_MSC_CAPS_FreezingRain-Accum_Sfc_RLatLon0.03_PT043H.grib2 2026-04-27 18:22 961K
20260427T12Z_MSC_CAPS_GeopotentialHeight_IsbL-0050_RLatLon0.03_PT043H.grib2 2026-04-27 18:22 647K
20260427T12Z_MSC_CAPS_GeopotentialHeight_IsbL-0100_RLatLon0.03_PT043H.grib2 2026-04-27 18:22 766K
20260427T12Z_MSC_CAPS_GeopotentialHeight_IsbL-0150_RLatLon0.03_PT043H.grib2 2026-04-27 18:22 728K
20260427T12Z_MSC_CAPS_GeopotentialHeight_IsbL-0175_RLatLon0.03_PT043H.grib2 2026-04-27 18:22 738K
20260427T12Z_MSC_CAPS_GeopotentialHeight_IsbL-0200_RLatLon0.03_PT043H.grib2 2026-04-27 18:22 746K
20260427T12Z_MSC_CAPS_GeopotentialHeight_IsbL-0225_RLatLon0.03_PT043H.grib2 2026-04-27 18:22 753K
20260427T12Z_MSC_CAPS_GeopotentialHeight_IsbL-0250_RLatLon0.03_PT043H.grib2 2026-04-27 18:22 759K
20260427T12Z_MSC_CAPS_GeopotentialHeight_IsbL-0275_RLatLon0.03_PT043H.grib2 2026-04-27 18:22 768K
20260427T12Z_MSC_CAPS_GeopotentialHeight_IsbL-0300_RLatLon0.03_PT043H.grib2 2026-04-27 18:22 773K
20260427T12Z_MSC_CAPS_GeopotentialHeight_IsbL-0350_RLatLon0.03_PT043H.grib2 2026-04-27 18:22 774K
20260427T12Z_MSC_CAPS_GeopotentialHeight_IsbL-0400_RLatLon0.03_PT043H.grib2 2026-04-27 18:22 769K
20260427T12Z_MSC_CAPS_GeopotentialHeight_IsbL-0450_RLatLon0.03_PT043H.grib2 2026-04-27 18:22 764K
20260427T12Z_MSC_CAPS_GeopotentialHeight_IsbL-0500_RLatLon0.03_PT043H.grib2 2026-04-27 18:22 752K
20260427T12Z_MSC_CAPS_GeopotentialHeight_IsbL-0550_RLatLon0.03_PT043H.grib2 2026-04-27 18:22 743K
20260427T12Z_MSC_CAPS_GeopotentialHeight_IsbL-0600_RLatLon0.03_PT043H.grib2 2026-04-27 18:22 630K
20260427T12Z_MSC_CAPS_GeopotentialHeight_IsbL-0650_RLatLon0.03_PT043H.grib2 2026-04-27 18:22 632K
20260427T12Z_MSC_CAPS_GeopotentialHeight_IsbL-0700_RLatLon0.03_PT043H.grib2 2026-04-27 18:22 801K
20260427T12Z_MSC_CAPS_GeopotentialHeight_IsbL-0750_RLatLon0.03_PT043H.grib2 2026-04-27 18:22 808K
20260427T12Z_MSC_CAPS_GeopotentialHeight_IsbL-0800_RLatLon0.03_PT043H.grib2 2026-04-27 18:22 810K
20260427T12Z_MSC_CAPS_GeopotentialHeight_IsbL-0850_RLatLon0.03_PT043H.grib2 2026-04-27 18:22 898K
20260427T12Z_MSC_CAPS_GeopotentialHeight_IsbL-0875_RLatLon0.03_PT043H.grib2 2026-04-27 18:22 904K
20260427T12Z_MSC_CAPS_GeopotentialHeight_IsbL-0900_RLatLon0.03_PT043H.grib2 2026-04-27 18:22 912K
20260427T12Z_MSC_CAPS_GeopotentialHeight_IsbL-0925_RLatLon0.03_PT043H.grib2 2026-04-27 18:22 921K
20260427T12Z_MSC_CAPS_GeopotentialHeight_IsbL-0950_RLatLon0.03_PT043H.grib2 2026-04-27 18:22 931K
20260427T12Z_MSC_CAPS_GeopotentialHeight_IsbL-0970_RLatLon0.03_PT043H.grib2 2026-04-27 18:22 942K
20260427T12Z_MSC_CAPS_GeopotentialHeight_IsbL-0985_RLatLon0.03_PT043H.grib2 2026-04-27 18:22 951K
20260427T12Z_MSC_CAPS_GeopotentialHeight_IsbL-1000_RLatLon0.03_PT043H.grib2 2026-04-27 18:22 959K
20260427T12Z_MSC_CAPS_GeopotentialHeight_IsbL-1015_RLatLon0.03_PT043H.grib2 2026-04-27 18:22 971K
20260427T12Z_MSC_CAPS_GeopotentialHeight_Sfc_RLatLon0.03_PT043H.grib2 2026-04-27 18:22 1.0M
20260427T12Z_MSC_CAPS_IcePellets-Accum_Sfc_RLatLon0.03_PT043H.grib2 2026-04-27 18:22 72K
20260427T12Z_MSC_CAPS_LatentHeatNetFlux_Sfc_RLatLon0.03_PT043H.grib2 2026-04-27 18:22 2.1M
20260427T12Z_MSC_CAPS_LiftedIndex-MU-VT_IsbL-0500_RLatLon0.03_PT043H.grib2 2026-04-27 18:22 3.3M
20260427T12Z_MSC_CAPS_MixedLayerThickness_Sfc_RLatLon0.03_PT043H.nc 2026-04-27 18:14 17M
20260427T12Z_MSC_CAPS_NetLongwaveRadiationFlux-Accum_Sfc_RLatLon0.03_PT043H.grib2 2026-04-27 18:22 2.9M
20260427T12Z_MSC_CAPS_NetShortwaveRadiationFlux-Accum_Sfc_RLatLon0.03_PT043H.grib2 2026-04-27 18:22 2.9M
20260427T12Z_MSC_CAPS_PlanetaryBoundaryLayerHeight_Sfc_RLatLon0.03_PT043H.grib2 2026-04-27 18:22 2.9M
20260427T12Z_MSC_CAPS_Precip-Accum_Sfc_RLatLon0.03_PT043H.grib2 2026-04-27 18:22 5.3M
20260427T12Z_MSC_CAPS_PrecipRate_Sfc_RLatLon0.03_PT043H.grib2 2026-04-27 18:22 620K
20260427T12Z_MSC_CAPS_PrecipType-Instant_Sfc_RLatLon0.03_PT043H.grib2 2026-04-27 18:22 2.1M
20260427T12Z_MSC_CAPS_Pressure_MSL_RLatLon0.03_PT043H.grib2 2026-04-27 18:22 767K
20260427T12Z_MSC_CAPS_Pressure_Sfc_RLatLon0.03_PT043H.grib2 2026-04-27 18:22 1.2M
20260427T12Z_MSC_CAPS_RadiativeTemp_Sfc_RLatLon0.03_PT043H.grib2 2026-04-27 18:22 2.1M
20260427T12Z_MSC_CAPS_Rain-Accum_Sfc_RLatLon0.03_PT043H.grib2 2026-04-27 18:22 2.3M
20260427T12Z_MSC_CAPS_RelativeHumidity_AGL-120m_RLatLon0.03_PT043H.grib2 2026-04-27 18:22 2.8M
20260427T12Z_MSC_CAPS_RelativeHumidity_AGL-2m_RLatLon0.03_PT043H.grib2 2026-04-27 18:22 2.9M
20260427T12Z_MSC_CAPS_RelativeHumidity_AGL-40m_RLatLon0.03_PT043H.grib2 2026-04-27 18:22 2.8M
20260427T12Z_MSC_CAPS_RelativeHumidity_AGL-80m_RLatLon0.03_PT043H.grib2 2026-04-27 18:22 2.8M
20260427T12Z_MSC_CAPS_RelativeHumidity_IsbL-0050_RLatLon0.03_PT043H.grib2 2026-04-27 18:22 1.0M
20260427T12Z_MSC_CAPS_RelativeHumidity_IsbL-0100_RLatLon0.03_PT043H.grib2 2026-04-27 18:22 914K
20260427T12Z_MSC_CAPS_RelativeHumidity_IsbL-0150_RLatLon0.03_PT043H.grib2 2026-04-27 18:22 568K
20260427T12Z_MSC_CAPS_RelativeHumidity_IsbL-0175_RLatLon0.03_PT043H.grib2 2026-04-27 18:22 513K
20260427T12Z_MSC_CAPS_RelativeHumidity_IsbL-0200_RLatLon0.03_PT043H.grib2 2026-04-27 18:22 680K
20260427T12Z_MSC_CAPS_RelativeHumidity_IsbL-0225_RLatLon0.03_PT043H.grib2 2026-04-27 18:22 894K
20260427T12Z_MSC_CAPS_RelativeHumidity_IsbL-0250_RLatLon0.03_PT043H.grib2 2026-04-27 18:22 1.1M
20260427T12Z_MSC_CAPS_RelativeHumidity_IsbL-0275_RLatLon0.03_PT043H.grib2 2026-04-27 18:22 1.4M
20260427T12Z_MSC_CAPS_RelativeHumidity_IsbL-0300_RLatLon0.03_PT043H.grib2 2026-04-27 18:22 1.6M
20260427T12Z_MSC_CAPS_RelativeHumidity_IsbL-0350_RLatLon0.03_PT043H.grib2 2026-04-27 18:22 1.8M
20260427T12Z_MSC_CAPS_RelativeHumidity_IsbL-0400_RLatLon0.03_PT043H.grib2 2026-04-27 18:22 1.9M
20260427T12Z_MSC_CAPS_RelativeHumidity_IsbL-0450_RLatLon0.03_PT043H.grib2 2026-04-27 18:22 2.0M
20260427T12Z_MSC_CAPS_RelativeHumidity_IsbL-0500_RLatLon0.03_PT043H.grib2 2026-04-27 18:22 2.0M
20260427T12Z_MSC_CAPS_RelativeHumidity_IsbL-0550_RLatLon0.03_PT043H.grib2 2026-04-27 18:22 2.2M
20260427T12Z_MSC_CAPS_RelativeHumidity_IsbL-0600_RLatLon0.03_PT043H.grib2 2026-04-27 18:22 2.2M
20260427T12Z_MSC_CAPS_RelativeHumidity_IsbL-0650_RLatLon0.03_PT043H.grib2 2026-04-27 18:22 2.2M
20260427T12Z_MSC_CAPS_RelativeHumidity_IsbL-0700_RLatLon0.03_PT043H.grib2 2026-04-27 18:22 2.3M
20260427T12Z_MSC_CAPS_RelativeHumidity_IsbL-0750_RLatLon0.03_PT043H.grib2 2026-04-27 18:22 2.4M
20260427T12Z_MSC_CAPS_RelativeHumidity_IsbL-0800_RLatLon0.03_PT043H.grib2 2026-04-27 18:22 2.4M
20260427T12Z_MSC_CAPS_RelativeHumidity_IsbL-0850_RLatLon0.03_PT043H.grib2 2026-04-27 18:22 2.5M
20260427T12Z_MSC_CAPS_RelativeHumidity_IsbL-0875_RLatLon0.03_PT043H.grib2 2026-04-27 18:22 2.5M
20260427T12Z_MSC_CAPS_RelativeHumidity_IsbL-0900_RLatLon0.03_PT043H.grib2 2026-04-27 18:22 2.5M
20260427T12Z_MSC_CAPS_RelativeHumidity_IsbL-0925_RLatLon0.03_PT043H.grib2 2026-04-27 18:22 2.6M
20260427T12Z_MSC_CAPS_RelativeHumidity_IsbL-0950_RLatLon0.03_PT043H.grib2 2026-04-27 18:22 2.6M
20260427T12Z_MSC_CAPS_RelativeHumidity_IsbL-0970_RLatLon0.03_PT043H.grib2 2026-04-27 18:22 2.7M
20260427T12Z_MSC_CAPS_RelativeHumidity_IsbL-0985_RLatLon0.03_PT043H.grib2 2026-04-27 18:22 2.8M
20260427T12Z_MSC_CAPS_RelativeHumidity_IsbL-1000_RLatLon0.03_PT043H.grib2 2026-04-27 18:22 2.9M
20260427T12Z_MSC_CAPS_RelativeHumidity_IsbL-1015_RLatLon0.03_PT043H.grib2 2026-04-27 18:22 2.9M
20260427T12Z_MSC_CAPS_Runoff-Accum_Sfc_RLatLon0.03_PT043H.grib2 2026-04-27 18:22 320K
20260427T12Z_MSC_CAPS_SeaIceAreaFraction_Sfc_RLatLon0.03_PT043H.nc 2026-04-27 18:14 15M
20260427T12Z_MSC_CAPS_SeaIceCompressiveStrength_Sfc_RLatLon0.03_PT043H.nc 2026-04-27 18:14 15M
20260427T12Z_MSC_CAPS_SeaIceDivergence_Sfc_RLatLon0.03_PT043H.nc 2026-04-27 18:14 15M
20260427T12Z_MSC_CAPS_SeaIceInternalPressure_Sfc_RLatLon0.03_PT043H.nc 2026-04-27 18:14 15M
20260427T12Z_MSC_CAPS_SeaIceShear_Sfc_RLatLon0.03_PT043H.nc 2026-04-27 18:14 14M
20260427T12Z_MSC_CAPS_SeaIceSnowTemp_Sfc_RLatLon0.03_PT043H.nc 2026-04-27 18:14 15M
20260427T12Z_MSC_CAPS_SeaIceSnowVolume_Sfc_RLatLon0.03_PT043H.nc 2026-04-27 18:14 15M
20260427T12Z_MSC_CAPS_SeaIceVelocityX_Sfc_RLatLon0.03_PT043H.nc 2026-04-27 18:14 15M
20260427T12Z_MSC_CAPS_SeaIceVelocityY_Sfc_RLatLon0.03_PT043H.nc 2026-04-27 18:14 15M
20260427T12Z_MSC_CAPS_SeaIceVolume_Sfc_RLatLon0.03_PT043H.nc 2026-04-27 18:14 15M
20260427T12Z_MSC_CAPS_SeaSurfaceHeight_Sfc_RLatLon0.03_PT043H.nc 2026-04-27 18:14 16M
20260427T12Z_MSC_CAPS_SeaWaterSalinity_DBS-0.5m_RLatLon0.03_PT043H.nc 2026-04-27 18:14 16M
20260427T12Z_MSC_CAPS_SeaWaterSalinity_DBS-all_RLatLon0.03_PT043H.nc 2026-04-27 18:14 107M
20260427T12Z_MSC_CAPS_SeaWaterTemp_DBS-0.5m_RLatLon0.03_PT043H.nc 2026-04-27 18:14 14M
20260427T12Z_MSC_CAPS_SeaWaterTemp_DBS-all_RLatLon0.03_PT043H.nc 2026-04-27 18:14 87M
20260427T12Z_MSC_CAPS_SeaWaterVelocityX_DBS-0.5m_RLatLon0.03_PT043H.nc 2026-04-27 18:14 17M
20260427T12Z_MSC_CAPS_SeaWaterVelocityX_DBS-all_RLatLon0.03_PT043H.nc 2026-04-27 18:14 211M
20260427T12Z_MSC_CAPS_SeaWaterVelocityY_DBS-0.5m_RLatLon0.03_PT043H.nc 2026-04-27 18:14 17M
20260427T12Z_MSC_CAPS_SeaWaterVelocityY_DBS-all_RLatLon0.03_PT043H.nc 2026-04-27 18:14 210M
20260427T12Z_MSC_CAPS_SensibleHeatNetFlux_Sfc_RLatLon0.03_PT043H.grib2 2026-04-27 18:22 2.0M
20260427T12Z_MSC_CAPS_ShowalterIndex_IsbL-0500_RLatLon0.03_PT043H.grib2 2026-04-27 18:22 4.3M
20260427T12Z_MSC_CAPS_Snow-Accum_Sfc_RLatLon0.03_PT043H.grib2 2026-04-27 18:22 4.4M
20260427T12Z_MSC_CAPS_SnowDensity_Sfc_RLatLon0.03_PT043H.grib2 2026-04-27 18:22 1.4M
20260427T12Z_MSC_CAPS_SnowDepthWaterEquivalent_Sfc_RLatLon0.03_PT043H.grib2 2026-04-27 18:22 729K
20260427T12Z_MSC_CAPS_SnowDepth_Sfc_RLatLon0.03_PT043H.grib2 2026-04-27 18:22 1.2M
20260427T12Z_MSC_CAPS_SoilTemp_DBS-0to10cm_RLatLon0.03_PT043H.grib2 2026-04-27 18:22 1.7M
20260427T12Z_MSC_CAPS_SoilTemp_Sfc_RLatLon0.03_PT043H.grib2 2026-04-27 18:22 1.8M
20260427T12Z_MSC_CAPS_SoilVolumetricIceContent_Sfc_RLatLon0.03_PT043H.grib2 2026-04-27 18:22 1.5M
20260427T12Z_MSC_CAPS_SoilVolumetricWaterContent_DBS-0to10cm_RLatLon0.03_PT043H.grib2 2026-04-27 18:22 1.2M
20260427T12Z_MSC_CAPS_SoilVolumetricWaterContent_DBS-0to1cm_RLatLon0.03_PT043H.grib2 2026-04-27 18:22 1.7M
20260427T12Z_MSC_CAPS_SpecificHumidity_AGL-120m_RLatLon0.03_PT043H.grib2 2026-04-27 18:22 1.7M
20260427T12Z_MSC_CAPS_SpecificHumidity_AGL-2m_RLatLon0.03_PT043H.grib2 2026-04-27 18:22 2.1M
20260427T12Z_MSC_CAPS_SpecificHumidity_AGL-40m_RLatLon0.03_PT043H.grib2 2026-04-27 18:22 1.8M
20260427T12Z_MSC_CAPS_SpecificHumidity_AGL-80m_RLatLon0.03_PT043H.grib2 2026-04-27 18:22 1.7M
20260427T12Z_MSC_CAPS_SpecificHumidity_IsbL-0050_RLatLon0.03_PT043H.grib2 2026-04-27 18:22 935K
20260427T12Z_MSC_CAPS_SpecificHumidity_IsbL-0100_RLatLon0.03_PT043H.grib2 2026-04-27 18:22 1.1M
20260427T12Z_MSC_CAPS_SpecificHumidity_IsbL-0150_RLatLon0.03_PT043H.grib2 2026-04-27 18:22 1.0M
20260427T12Z_MSC_CAPS_SpecificHumidity_IsbL-0175_RLatLon0.03_PT043H.grib2 2026-04-27 18:22 758K
20260427T12Z_MSC_CAPS_SpecificHumidity_IsbL-0200_RLatLon0.03_PT043H.grib2 2026-04-27 18:22 880K
20260427T12Z_MSC_CAPS_SpecificHumidity_IsbL-0225_RLatLon0.03_PT043H.grib2 2026-04-27 18:22 1.1M
20260427T12Z_MSC_CAPS_SpecificHumidity_IsbL-0250_RLatLon0.03_PT043H.grib2 2026-04-27 18:22 1.1M
20260427T12Z_MSC_CAPS_SpecificHumidity_IsbL-0275_RLatLon0.03_PT043H.grib2 2026-04-27 18:22 1.1M
20260427T12Z_MSC_CAPS_SpecificHumidity_IsbL-0300_RLatLon0.03_PT043H.grib2 2026-04-27 18:22 1.2M
20260427T12Z_MSC_CAPS_SpecificHumidity_IsbL-0350_RLatLon0.03_PT043H.grib2 2026-04-27 18:22 1.2M
20260427T12Z_MSC_CAPS_SpecificHumidity_IsbL-0400_RLatLon0.03_PT043H.grib2 2026-04-27 18:22 1.1M
20260427T12Z_MSC_CAPS_SpecificHumidity_IsbL-0450_RLatLon0.03_PT043H.grib2 2026-04-27 18:22 1.1M
20260427T12Z_MSC_CAPS_SpecificHumidity_IsbL-0500_RLatLon0.03_PT043H.grib2 2026-04-27 18:22 1.3M
20260427T12Z_MSC_CAPS_SpecificHumidity_IsbL-0550_RLatLon0.03_PT043H.grib2 2026-04-27 18:22 1.3M
20260427T12Z_MSC_CAPS_SpecificHumidity_IsbL-0600_RLatLon0.03_PT043H.grib2 2026-04-27 18:22 1.4M
20260427T12Z_MSC_CAPS_SpecificHumidity_IsbL-0650_RLatLon0.03_PT043H.grib2 2026-04-27 18:22 1.5M
20260427T12Z_MSC_CAPS_SpecificHumidity_IsbL-0700_RLatLon0.03_PT043H.grib2 2026-04-27 18:22 1.6M
20260427T12Z_MSC_CAPS_SpecificHumidity_IsbL-0750_RLatLon0.03_PT043H.grib2 2026-04-27 18:22 1.8M
20260427T12Z_MSC_CAPS_SpecificHumidity_IsbL-0800_RLatLon0.03_PT043H.grib2 2026-04-27 18:22 1.5M
20260427T12Z_MSC_CAPS_SpecificHumidity_IsbL-0850_RLatLon0.03_PT043H.grib2 2026-04-27 18:22 1.6M
20260427T12Z_MSC_CAPS_SpecificHumidity_IsbL-0875_RLatLon0.03_PT043H.grib2 2026-04-27 18:22 1.7M
20260427T12Z_MSC_CAPS_SpecificHumidity_IsbL-0900_RLatLon0.03_PT043H.grib2 2026-04-27 18:22 1.8M
20260427T12Z_MSC_CAPS_SpecificHumidity_IsbL-0925_RLatLon0.03_PT043H.grib2 2026-04-27 18:22 1.8M
20260427T12Z_MSC_CAPS_SpecificHumidity_IsbL-0950_RLatLon0.03_PT043H.grib2 2026-04-27 18:22 1.9M
20260427T12Z_MSC_CAPS_SpecificHumidity_IsbL-0970_RLatLon0.03_PT043H.grib2 2026-04-27 18:22 1.9M
20260427T12Z_MSC_CAPS_SpecificHumidity_IsbL-0985_RLatLon0.03_PT043H.grib2 2026-04-27 18:22 2.0M
20260427T12Z_MSC_CAPS_SpecificHumidity_IsbL-1000_RLatLon0.03_PT043H.grib2 2026-04-27 18:22 2.0M
20260427T12Z_MSC_CAPS_SpecificHumidity_IsbL-1015_RLatLon0.03_PT043H.grib2 2026-04-27 18:22 2.1M
20260427T12Z_MSC_CAPS_SpecificHumidity_Sfc_RLatLon0.03_PT043H.grib2 2026-04-27 18:22 2.5M
20260427T12Z_MSC_CAPS_StormRelativeHelicity_Sfc_RLatLon0.03_PT043H.grib2 2026-04-27 18:22 3.2M
20260427T12Z_MSC_CAPS_Thickness_IsbL-1000to0500_RLatLon0.03_PT043H.grib2 2026-04-27 18:22 426K
20260427T12Z_MSC_CAPS_TotalCloudCover_Sfc_RLatLon0.03_PT043H.grib2 2026-04-27 18:22 3.6M
20260427T12Z_MSC_CAPS_TurboclineDepth_Sfc_RLatLon0.03_PT043H.nc 2026-04-27 18:14 16M
20260427T12Z_MSC_CAPS_UpwardLongwaveRadiationFlux_NTAtm_RLatLon0.03_PT043H.grib2 2026-04-27 18:22 2.9M
20260427T12Z_MSC_CAPS_UpwardShortwaveRadiationFlux_NTAtm_RLatLon0.03_PT043H.grib2 2026-04-27 18:22 1.6M
20260427T12Z_MSC_CAPS_VerticalVelocity_IsbL-0250_RLatLon0.03_PT043H.grib2 2026-04-27 18:22 882K
20260427T12Z_MSC_CAPS_VerticalVelocity_IsbL-0500_RLatLon0.03_PT043H.grib2 2026-04-27 18:22 1.2M
20260427T12Z_MSC_CAPS_VerticalVelocity_IsbL-0700_RLatLon0.03_PT043H.grib2 2026-04-27 18:22 937K
20260427T12Z_MSC_CAPS_VerticalVelocity_IsbL-0850_RLatLon0.03_PT043H.grib2 2026-04-27 18:22 1.2M
20260427T12Z_MSC_CAPS_VerticalVelocity_IsbL-1000_RLatLon0.03_PT043H.grib2 2026-04-27 18:22 1.2M
20260427T12Z_MSC_CAPS_WindDir_AGL-10m_RLatLon0.03_PT043H.grib2 2026-04-27 18:22 2.4M
20260427T12Z_MSC_CAPS_WindDir_AGL-120m_RLatLon0.03_PT043H.grib2 2026-04-27 18:22 1.3M
20260427T12Z_MSC_CAPS_WindDir_AGL-40m_RLatLon0.03_PT043H.grib2 2026-04-27 18:22 1.3M
20260427T12Z_MSC_CAPS_WindDir_AGL-80m_RLatLon0.03_PT043H.grib2 2026-04-27 18:22 1.3M
20260427T12Z_MSC_CAPS_WindDir_IsbL-0050_RLatLon0.03_PT043H.grib2 2026-04-27 18:22 1.0M
20260427T12Z_MSC_CAPS_WindDir_IsbL-0100_RLatLon0.03_PT043H.grib2 2026-04-27 18:22 1.0M
20260427T12Z_MSC_CAPS_WindDir_IsbL-0150_RLatLon0.03_PT043H.grib2 2026-04-27 18:22 1.0M
20260427T12Z_MSC_CAPS_WindDir_IsbL-0175_RLatLon0.03_PT043H.grib2 2026-04-27 18:22 1.0M
20260427T12Z_MSC_CAPS_WindDir_IsbL-0200_RLatLon0.03_PT043H.grib2 2026-04-27 18:22 1.1M
20260427T12Z_MSC_CAPS_WindDir_IsbL-0225_RLatLon0.03_PT043H.grib2 2026-04-27 18:22 1.1M
20260427T12Z_MSC_CAPS_WindDir_IsbL-0250_RLatLon0.03_PT043H.grib2 2026-04-27 18:22 1.1M
20260427T12Z_MSC_CAPS_WindDir_IsbL-0275_RLatLon0.03_PT043H.grib2 2026-04-27 18:22 1.1M
20260427T12Z_MSC_CAPS_WindDir_IsbL-0300_RLatLon0.03_PT043H.grib2 2026-04-27 18:22 1.1M
20260427T12Z_MSC_CAPS_WindDir_IsbL-0350_RLatLon0.03_PT043H.grib2 2026-04-27 18:22 1.1M
20260427T12Z_MSC_CAPS_WindDir_IsbL-0400_RLatLon0.03_PT043H.grib2 2026-04-27 18:22 1.1M
20260427T12Z_MSC_CAPS_WindDir_IsbL-0450_RLatLon0.03_PT043H.grib2 2026-04-27 18:22 1.2M
20260427T12Z_MSC_CAPS_WindDir_IsbL-0500_RLatLon0.03_PT043H.grib2 2026-04-27 18:22 1.2M
20260427T12Z_MSC_CAPS_WindDir_IsbL-0550_RLatLon0.03_PT043H.grib2 2026-04-27 18:22 1.2M
20260427T12Z_MSC_CAPS_WindDir_IsbL-0600_RLatLon0.03_PT043H.grib2 2026-04-27 18:22 1.3M
20260427T12Z_MSC_CAPS_WindDir_IsbL-0650_RLatLon0.03_PT043H.grib2 2026-04-27 18:22 1.3M
20260427T12Z_MSC_CAPS_WindDir_IsbL-0700_RLatLon0.03_PT043H.grib2 2026-04-27 18:22 1.4M
20260427T12Z_MSC_CAPS_WindDir_IsbL-0750_RLatLon0.03_PT043H.grib2 2026-04-27 18:22 1.5M
20260427T12Z_MSC_CAPS_WindDir_IsbL-0800_RLatLon0.03_PT043H.grib2 2026-04-27 18:22 1.6M
20260427T12Z_MSC_CAPS_WindDir_IsbL-0850_RLatLon0.03_PT043H.grib2 2026-04-27 18:22 1.8M
20260427T12Z_MSC_CAPS_WindDir_IsbL-0875_RLatLon0.03_PT043H.grib2 2026-04-27 18:22 1.9M
20260427T12Z_MSC_CAPS_WindDir_IsbL-0900_RLatLon0.03_PT043H.grib2 2026-04-27 18:22 2.0M
20260427T12Z_MSC_CAPS_WindDir_IsbL-0925_RLatLon0.03_PT043H.grib2 2026-04-27 18:22 2.0M
20260427T12Z_MSC_CAPS_WindDir_IsbL-0950_RLatLon0.03_PT043H.grib2 2026-04-27 18:22 2.1M
20260427T12Z_MSC_CAPS_WindDir_IsbL-0970_RLatLon0.03_PT043H.grib2 2026-04-27 18:22 2.2M
20260427T12Z_MSC_CAPS_WindDir_IsbL-0985_RLatLon0.03_PT043H.grib2 2026-04-27 18:22 2.2M
20260427T12Z_MSC_CAPS_WindDir_IsbL-1000_RLatLon0.03_PT043H.grib2 2026-04-27 18:22 2.3M
20260427T12Z_MSC_CAPS_WindDir_IsbL-1015_RLatLon0.03_PT043H.grib2 2026-04-27 18:22 2.4M
20260427T12Z_MSC_CAPS_WindGust-Max_AGL-10m_RLatLon0.03_PT043H.grib2 2026-04-27 18:22 2.4M
20260427T12Z_MSC_CAPS_WindGust-Min_AGL-10m_RLatLon0.03_PT043H.grib2 2026-04-27 18:22 2.4M
20260427T12Z_MSC_CAPS_WindGust_AGL-10m_RLatLon0.03_PT043H.grib2 2026-04-27 18:22 2.5M
20260427T12Z_MSC_CAPS_WindSpeed_AGL-10m_RLatLon0.03_PT043H.grib2 2026-04-27 18:22 2.1M
20260427T12Z_MSC_CAPS_WindSpeed_AGL-120m_RLatLon0.03_PT043H.grib2 2026-04-27 18:22 1.2M
20260427T12Z_MSC_CAPS_WindSpeed_AGL-40m_RLatLon0.03_PT043H.grib2 2026-04-27 18:22 1.3M
20260427T12Z_MSC_CAPS_WindSpeed_AGL-80m_RLatLon0.03_PT043H.grib2 2026-04-27 18:22 1.2M
20260427T12Z_MSC_CAPS_WindSpeed_IsbL-0050_RLatLon0.03_PT043H.grib2 2026-04-27 18:22 1.0M
20260427T12Z_MSC_CAPS_WindSpeed_IsbL-0100_RLatLon0.03_PT043H.grib2 2026-04-27 18:22 1.0M
20260427T12Z_MSC_CAPS_WindSpeed_IsbL-0150_RLatLon0.03_PT043H.grib2 2026-04-27 18:22 1.1M
20260427T12Z_MSC_CAPS_WindSpeed_IsbL-0175_RLatLon0.03_PT043H.grib2 2026-04-27 18:22 1.1M
20260427T12Z_MSC_CAPS_WindSpeed_IsbL-0200_RLatLon0.03_PT043H.grib2 2026-04-27 18:22 1.2M
20260427T12Z_MSC_CAPS_WindSpeed_IsbL-0225_RLatLon0.03_PT043H.grib2 2026-04-27 18:22 947K
20260427T12Z_MSC_CAPS_WindSpeed_IsbL-0250_RLatLon0.03_PT043H.grib2 2026-04-27 18:22 966K
20260427T12Z_MSC_CAPS_WindSpeed_IsbL-0275_RLatLon0.03_PT043H.grib2 2026-04-27 18:22 972K
20260427T12Z_MSC_CAPS_WindSpeed_IsbL-0300_RLatLon0.03_PT043H.grib2 2026-04-27 18:22 1.0M
20260427T12Z_MSC_CAPS_WindSpeed_IsbL-0350_RLatLon0.03_PT043H.grib2 2026-04-27 18:22 1.0M
20260427T12Z_MSC_CAPS_WindSpeed_IsbL-0400_RLatLon0.03_PT043H.grib2 2026-04-27 18:22 1.0M
20260427T12Z_MSC_CAPS_WindSpeed_IsbL-0450_RLatLon0.03_PT043H.grib2 2026-04-27 18:22 1.3M
20260427T12Z_MSC_CAPS_WindSpeed_IsbL-0500_RLatLon0.03_PT043H.grib2 2026-04-27 18:22 1.3M
20260427T12Z_MSC_CAPS_WindSpeed_IsbL-0550_RLatLon0.03_PT043H.grib2 2026-04-27 18:22 1.4M
20260427T12Z_MSC_CAPS_WindSpeed_IsbL-0600_RLatLon0.03_PT043H.grib2 2026-04-27 18:22 1.4M
20260427T12Z_MSC_CAPS_WindSpeed_IsbL-0650_RLatLon0.03_PT043H.grib2 2026-04-27 18:22 1.4M
20260427T12Z_MSC_CAPS_WindSpeed_IsbL-0700_RLatLon0.03_PT043H.grib2 2026-04-27 18:22 1.5M
20260427T12Z_MSC_CAPS_WindSpeed_IsbL-0750_RLatLon0.03_PT043H.grib2 2026-04-27 18:22 1.5M
20260427T12Z_MSC_CAPS_WindSpeed_IsbL-0800_RLatLon0.03_PT043H.grib2 2026-04-27 18:22 1.6M
20260427T12Z_MSC_CAPS_WindSpeed_IsbL-0850_RLatLon0.03_PT043H.grib2 2026-04-27 18:22 1.8M
20260427T12Z_MSC_CAPS_WindSpeed_IsbL-0875_RLatLon0.03_PT043H.grib2 2026-04-27 18:22 1.7M
20260427T12Z_MSC_CAPS_WindSpeed_IsbL-0900_RLatLon0.03_PT043H.grib2 2026-04-27 18:22 1.7M
20260427T12Z_MSC_CAPS_WindSpeed_IsbL-0925_RLatLon0.03_PT043H.grib2 2026-04-27 18:22 1.8M
20260427T12Z_MSC_CAPS_WindSpeed_IsbL-0950_RLatLon0.03_PT043H.grib2 2026-04-27 18:22 1.8M
20260427T12Z_MSC_CAPS_WindSpeed_IsbL-0970_RLatLon0.03_PT043H.grib2 2026-04-27 18:22 2.0M
20260427T12Z_MSC_CAPS_WindSpeed_IsbL-0985_RLatLon0.03_PT043H.grib2 2026-04-27 18:22 2.0M
20260427T12Z_MSC_CAPS_WindSpeed_IsbL-1000_RLatLon0.03_PT043H.grib2 2026-04-27 18:22 2.1M
20260427T12Z_MSC_CAPS_WindSpeed_IsbL-1015_RLatLon0.03_PT043H.grib2 2026-04-27 18:22 2.1M
20260427T12Z_MSC_CAPS_WindU_AGL-10m_RLatLon0.03_PT043H.grib2 2026-04-27 18:22 1.5M
20260427T12Z_MSC_CAPS_WindU_AGL-120m_RLatLon0.03_PT043H.grib2 2026-04-27 18:22 1.0M
20260427T12Z_MSC_CAPS_WindU_AGL-40m_RLatLon0.03_PT043H.grib2 2026-04-27 18:22 928K
20260427T12Z_MSC_CAPS_WindU_AGL-80m_RLatLon0.03_PT043H.grib2 2026-04-27 18:22 902K
20260427T12Z_MSC_CAPS_WindU_IsbL-0050_RLatLon0.03_PT043H.grib2 2026-04-27 18:22 937K
20260427T12Z_MSC_CAPS_WindU_IsbL-0100_RLatLon0.03_PT043H.grib2 2026-04-27 18:22 1.0M
20260427T12Z_MSC_CAPS_WindU_IsbL-0150_RLatLon0.03_PT043H.grib2 2026-04-27 18:22 714K
20260427T12Z_MSC_CAPS_WindU_IsbL-0175_RLatLon0.03_PT043H.grib2 2026-04-27 18:22 728K
20260427T12Z_MSC_CAPS_WindU_IsbL-0200_RLatLon0.03_PT043H.grib2 2026-04-27 18:22 866K
20260427T12Z_MSC_CAPS_WindU_IsbL-0225_RLatLon0.03_PT043H.grib2 2026-04-27 18:22 886K
20260427T12Z_MSC_CAPS_WindU_IsbL-0250_RLatLon0.03_PT043H.grib2 2026-04-27 18:22 909K
20260427T12Z_MSC_CAPS_WindU_IsbL-0275_RLatLon0.03_PT043H.grib2 2026-04-27 18:22 916K
20260427T12Z_MSC_CAPS_WindU_IsbL-0300_RLatLon0.03_PT043H.grib2 2026-04-27 18:22 922K
20260427T12Z_MSC_CAPS_WindU_IsbL-0350_RLatLon0.03_PT043H.grib2 2026-04-27 18:22 937K
20260427T12Z_MSC_CAPS_WindU_IsbL-0400_RLatLon0.03_PT043H.grib2 2026-04-27 18:22 942K
20260427T12Z_MSC_CAPS_WindU_IsbL-0450_RLatLon0.03_PT043H.grib2 2026-04-27 18:22 962K
20260427T12Z_MSC_CAPS_WindU_IsbL-0500_RLatLon0.03_PT043H.grib2 2026-04-27 18:22 1.0M
20260427T12Z_MSC_CAPS_WindU_IsbL-0550_RLatLon0.03_PT043H.grib2 2026-04-27 18:22 912K
20260427T12Z_MSC_CAPS_WindU_IsbL-0600_RLatLon0.03_PT043H.grib2 2026-04-27 18:22 940K
20260427T12Z_MSC_CAPS_WindU_IsbL-0650_RLatLon0.03_PT043H.grib2 2026-04-27 18:22 1.2M
20260427T12Z_MSC_CAPS_WindU_IsbL-0700_RLatLon0.03_PT043H.grib2 2026-04-27 18:22 1.3M
20260427T12Z_MSC_CAPS_WindU_IsbL-0750_RLatLon0.03_PT043H.grib2 2026-04-27 18:22 1.0M
20260427T12Z_MSC_CAPS_WindU_IsbL-0800_RLatLon0.03_PT043H.grib2 2026-04-27 18:22 1.1M
20260427T12Z_MSC_CAPS_WindU_IsbL-0850_RLatLon0.03_PT043H.grib2 2026-04-27 18:22 1.3M
20260427T12Z_MSC_CAPS_WindU_IsbL-0875_RLatLon0.03_PT043H.grib2 2026-04-27 18:22 1.3M
20260427T12Z_MSC_CAPS_WindU_IsbL-0900_RLatLon0.03_PT043H.grib2 2026-04-27 18:22 1.3M
20260427T12Z_MSC_CAPS_WindU_IsbL-0925_RLatLon0.03_PT043H.grib2 2026-04-27 18:22 1.4M
20260427T12Z_MSC_CAPS_WindU_IsbL-0950_RLatLon0.03_PT043H.grib2 2026-04-27 18:22 1.4M
20260427T12Z_MSC_CAPS_WindU_IsbL-0970_RLatLon0.03_PT043H.grib2 2026-04-27 18:22 1.5M
20260427T12Z_MSC_CAPS_WindU_IsbL-0985_RLatLon0.03_PT043H.grib2 2026-04-27 18:22 1.4M
20260427T12Z_MSC_CAPS_WindU_IsbL-1000_RLatLon0.03_PT043H.grib2 2026-04-27 18:22 1.5M
20260427T12Z_MSC_CAPS_WindU_IsbL-1015_RLatLon0.03_PT043H.grib2 2026-04-27 18:22 1.5M
20260427T12Z_MSC_CAPS_WindV_AGL-10m_RLatLon0.03_PT043H.grib2 2026-04-27 18:22 2.0M
20260427T12Z_MSC_CAPS_WindV_AGL-120m_RLatLon0.03_PT043H.grib2 2026-04-27 18:22 1.2M
20260427T12Z_MSC_CAPS_WindV_AGL-40m_RLatLon0.03_PT043H.grib2 2026-04-27 18:22 1.2M
20260427T12Z_MSC_CAPS_WindV_AGL-80m_RLatLon0.03_PT043H.grib2 2026-04-27 18:22 1.2M
20260427T12Z_MSC_CAPS_WindV_IsbL-0050_RLatLon0.03_PT043H.grib2 2026-04-27 18:22 939K
20260427T12Z_MSC_CAPS_WindV_IsbL-0100_RLatLon0.03_PT043H.grib2 2026-04-27 18:22 807K
20260427T12Z_MSC_CAPS_WindV_IsbL-0150_RLatLon0.03_PT043H.grib2 2026-04-27 18:22 920K
20260427T12Z_MSC_CAPS_WindV_IsbL-0175_RLatLon0.03_PT043H.grib2 2026-04-27 18:22 726K
20260427T12Z_MSC_CAPS_WindV_IsbL-0200_RLatLon0.03_PT043H.grib2 2026-04-27 18:22 865K
20260427T12Z_MSC_CAPS_WindV_IsbL-0225_RLatLon0.03_PT043H.grib2 2026-04-27 18:22 884K
20260427T12Z_MSC_CAPS_WindV_IsbL-0250_RLatLon0.03_PT043H.grib2 2026-04-27 18:22 908K
20260427T12Z_MSC_CAPS_WindV_IsbL-0275_RLatLon0.03_PT043H.grib2 2026-04-27 18:22 915K
20260427T12Z_MSC_CAPS_WindV_IsbL-0300_RLatLon0.03_PT043H.grib2 2026-04-27 18:22 925K
20260427T12Z_MSC_CAPS_WindV_IsbL-0350_RLatLon0.03_PT043H.grib2 2026-04-27 18:22 940K
20260427T12Z_MSC_CAPS_WindV_IsbL-0400_RLatLon0.03_PT043H.grib2 2026-04-27 18:22 944K
20260427T12Z_MSC_CAPS_WindV_IsbL-0450_RLatLon0.03_PT043H.grib2 2026-04-27 18:22 965K
20260427T12Z_MSC_CAPS_WindV_IsbL-0500_RLatLon0.03_PT043H.grib2 2026-04-27 18:22 878K
20260427T12Z_MSC_CAPS_WindV_IsbL-0550_RLatLon0.03_PT043H.grib2 2026-04-27 18:22 913K
20260427T12Z_MSC_CAPS_WindV_IsbL-0600_RLatLon0.03_PT043H.grib2 2026-04-27 18:22 938K
20260427T12Z_MSC_CAPS_WindV_IsbL-0650_RLatLon0.03_PT043H.grib2 2026-04-27 18:22 1.2M
20260427T12Z_MSC_CAPS_WindV_IsbL-0700_RLatLon0.03_PT043H.grib2 2026-04-27 18:22 1.3M
20260427T12Z_MSC_CAPS_WindV_IsbL-0750_RLatLon0.03_PT043H.grib2 2026-04-27 18:22 1.3M
20260427T12Z_MSC_CAPS_WindV_IsbL-0800_RLatLon0.03_PT043H.grib2 2026-04-27 18:22 1.4M
20260427T12Z_MSC_CAPS_WindV_IsbL-0850_RLatLon0.03_PT043H.grib2 2026-04-27 18:22 1.5M
20260427T12Z_MSC_CAPS_WindV_IsbL-0875_RLatLon0.03_PT043H.grib2 2026-04-27 18:22 1.2M
20260427T12Z_MSC_CAPS_WindV_IsbL-0900_RLatLon0.03_PT043H.grib2 2026-04-27 18:22 1.6M
20260427T12Z_MSC_CAPS_WindV_IsbL-0925_RLatLon0.03_PT043H.grib2 2026-04-27 18:22 1.6M
20260427T12Z_MSC_CAPS_WindV_IsbL-0950_RLatLon0.03_PT043H.grib2 2026-04-27 18:22 1.7M
20260427T12Z_MSC_CAPS_WindV_IsbL-0970_RLatLon0.03_PT043H.grib2 2026-04-27 18:22 1.7M
20260427T12Z_MSC_CAPS_WindV_IsbL-0985_RLatLon0.03_PT043H.grib2 2026-04-27 18:22 1.8M
20260427T12Z_MSC_CAPS_WindV_IsbL-1000_RLatLon0.03_PT043H.grib2 2026-04-27 18:22 2.0M
20260427T12Z_MSC_CAPS_WindV_IsbL-1015_RLatLon0.03_PT043H.grib2 2026-04-27 18:22 2.0M